Location: Tauranga
(37.6860°S, 176.1670°E)
Time: 05:32:06
(UTC+13:00)

Meteor 1-25 Rocket - Pass Details

Date: 24 January 2019
Orbit: 836 x 892 km, 81.2° (Epoch: 17 October)

Event Time Altitude Azimuth Distance (km) Brightness Sun altitude
Rises 23:12:41 0° 190° (S) 3,522 8.5 -24.9°
Reaches altitude 10° 23:15:09 10° 189° (S) 2,581 7.6 -25.2°
Maximum altitude 23:21:03 89° 273° (W) 905 4.2 -25.8°
Enters shadow 23:21:57 66° 5° (N) 976 4.2 -25.9°
